sat.trackr.live / text

‹ back to catalog

STARLINK-36129

NORAD 66874 · 2025-281AC

PAYLOAD ACTIVE UNKNOWN

§ Identity

Operator
Country
US
Launch date
2025-12-02
Launch site
AFETR
Launch vehicle
Mass (kg)
RCS (m²)

Purposes: comms

External: N2YO · Heavens-Above · Gunter

§ Orbital elements

Epoch: 2026-05-25T01:11:33.696384Z

Period
94.27 min
Inclination
42.9978°
Eccentricity
0.0000988
Mean motion
15.27587108 rev/d
Perigee alt
482.3 km
Apogee alt
483.7 km
Semi-major
6,861.2 km
B*
5.7512e-4
RAAN
272.2414°
Arg perigee
292.4610°
Mean anomaly
67.6137°
Rev number
2,785

§ Raw data

STARLINK-361291 66874U 25281AC  26145.04969556  .00015601  00000+0  57512-3 0  99962 66874  42.9978 272.2414 0000988 292.4610  67.6137 15.27587108 27859

JSON: /api/v1/satellites/66874 · /tle

For live sub-satellite position, see the globe view (requires WebGL).

§ Visibility from observer

Set your observer location to see the next 7 days of passes ≥ 10°. The values pass through the URL so the page stays shareable.

No JS? Fill the form by hand. The geolocation button needs JavaScript.